UAL2397 KLAX-KEWR

Flight info

Callsign UAL2397
Flight time N/A
Altitude 37000
Route OSHNN1 BEALE J146 DVC HBU MCK OVR DSM EVOTE NELLS KEEHO J584 SLT FQM3
Aircraft B77W/H-SDE1E2E3FGHIJ2J3J4J5M1RWXY/S

Departure

Time 2026-04-25 05:36
Airport Los Angeles International Airport (KLAX)

Arrival

Time N/A
Airport Newark Liberty International Airport (KEWR)
Time Latitude Longitude Altitude Speed Heading
2026-04-25 04:47 33.94089 -118.40931 132 ft 0 kts 263°
2026-04-25 04:53 33.94177 -118.41103 131 ft 0 kts 83°
2026-04-25 05:19 33.94175 -118.41118 131 ft 2 kts 83°
2026-04-25 05:20 33.94174 -118.41135 131 ft 2 kts 85°
2026-04-25 05:20 33.94174 -118.41154 131 ft 2 kts 104°
2026-04-25 05:20 33.94179 -118.41170 131 ft 2 kts 120°
2026-04-25 05:20 33.94188 -118.41185 131 ft 2 kts 135°
2026-04-25 05:21 33.94200 -118.41196 131 ft 2 kts 150°
2026-04-25 05:21 33.94214 -118.41203 131 ft 2 kts 165°
2026-04-25 05:21 33.94222 -118.41206 131 ft 1 kts 174°
2026-04-25 05:21 33.94223 -118.41206 131 ft 0 kts 174°
2026-04-25 05:25 33.94220 -118.41206 130 ft 3 kts 174°
2026-04-25 05:25 33.94179 -118.41203 131 ft 7 kts 178°
2026-04-25 05:25 33.94118 -118.41198 131 ft 9 kts 175°
2026-04-25 05:25 33.94046 -118.41190 131 ft 11 kts 174°
2026-04-25 05:26 33.93964 -118.41180 132 ft 12 kts 174°
2026-04-25 05:26 33.93885 -118.41170 133 ft 10 kts 174°
2026-04-25 05:26 33.93815 -118.41159 133 ft 9 kts 171°
2026-04-25 05:26 33.93774 -118.41123 133 ft 6 kts 109°
2026-04-25 05:27 33.93772 -118.41068 133 ft 7 kts 85°
2026-04-25 05:27 33.93780 -118.40993 134 ft 11 kts 83°
2026-04-25 05:27 33.93792 -118.40883 133 ft 15 kts 83°
2026-04-25 05:27 33.93805 -118.40739 133 ft 18 kts 84°
2026-04-25 05:28 33.93819 -118.40581 132 ft 19 kts 83°
2026-04-25 05:28 33.93838 -118.40409 130 ft 21 kts 82°
2026-04-25 05:28 33.93859 -118.40220 128 ft 23 kts 84°
2026-04-25 05:28 33.93879 -118.40013 125 ft 25 kts 82°
2026-04-25 05:29 33.93901 -118.39790 122 ft 28 kts 83°
2026-04-25 05:29 33.93925 -118.39550 118 ft 28 kts 84°
2026-04-25 05:29 33.93951 -118.39323 116 ft 27 kts 83°
2026-04-25 05:29 33.93972 -118.39101 114 ft 26 kts 84°
2026-04-25 05:30 33.93993 -118.38890 113 ft 24 kts 82°
2026-04-25 05:30 33.94016 -118.38695 112 ft 23 kts 83°
2026-04-25 05:30 33.94031 -118.38509 111 ft 21 kts 84°
2026-04-25 05:30 33.94051 -118.38335 110 ft 20 kts 82°
2026-04-25 05:31 33.94067 -118.38174 109 ft 18 kts 83°
2026-04-25 05:31 33.94075 -118.38077 109 ft 10 kts 93°
2026-04-25 05:31 33.94046 -118.38026 109 ft 7 kts 142°
2026-04-25 05:31 33.94009 -118.38013 109 ft 3 kts 200°
2026-04-25 05:32 33.93996 -118.38030 109 ft 2 kts 237°
2026-04-25 05:32 33.93985 -118.38063 109 ft 0 kts 254°
2026-04-25 05:32 33.93982 -118.38074 109 ft 0 kts 258°
2026-04-25 05:34 33.93979 -118.38091 109 ft 7 kts 258°
2026-04-25 05:35 33.93956 -118.38291 110 ft 55 kts 264°
2026-04-25 05:35 33.93882 -118.39032 114 ft 121 kts 263°
2026-04-25 05:35 33.93753 -118.40279 148 ft 174 kts 262°
2026-04-25 05:35 33.93603 -118.41751 699 ft 180 kts 262°
2026-04-25 05:36 33.93438 -118.43265 1449 ft 185 kts 262°
2026-04-25 05:36 33.93262 -118.44762 2196 ft 187 kts 263°
2026-04-25 05:36 33.93030 -118.46320 2781 ft 195 kts 255°
2026-04-25 05:36 33.92374 -118.47826 3170 ft 214 kts 226°
2026-04-25 05:37 33.91211 -118.49040 3687 ft 229 kts 226°
2026-04-25 05:37 33.90083 -118.50496 4235 ft 244 kts 230°
2026-04-25 05:37 33.88954 -118.52079 4781 ft 258 kts 231°
2026-04-25 05:37 33.87773 -118.53766 4951 ft 265 kts 231°
2026-04-25 05:38 33.86392 -118.55193 4949 ft 266 kts 209°
2026-04-25 05:38 33.84585 -118.55795 4972 ft 280 kts 182°
2026-04-25 05:38 33.82648 -118.55532 5905 ft 280 kts 171°
2026-04-25 05:38 33.80777 -118.55067 6923 ft 277 kts 169°
2026-04-25 05:39 33.78886 -118.54559 7729 ft 282 kts 169°
2026-04-25 05:39 33.76967 -118.54038 8565 ft 284 kts 170°
2026-04-25 05:39 33.75038 -118.53517 9379 ft 287 kts 171°
2026-04-25 05:39 33.73081 -118.52988 10166 ft 290 kts 169°
2026-04-25 05:40 33.71114 -118.52218 10624 ft 309 kts 159°
2026-04-25 05:40 33.69238 -118.50945 11434 ft 315 kts 148°
2026-04-25 05:40 33.67614 -118.49243 12449 ft 313 kts 137°
2026-04-25 05:40 33.66244 -118.47153 13145 ft 324 kts 126°
2026-04-25 05:41 33.65241 -118.44667 13800 ft 338 kts 108°
2026-04-25 05:41 33.64997 -118.41866 14512 ft 347 kts 87°
2026-04-25 05:41 33.65051 -118.39008 15302 ft 348 kts 96°
2026-04-25 05:41 33.64899 -118.36068 16076 ft 353 kts 95°
2026-04-25 05:42 33.64784 -118.33099 16733 ft 360 kts 94°
2026-04-25 05:42 33.64693 -118.30087 16931 ft 362 kts 94°
2026-04-25 05:42 33.64607 -118.27030 17155 ft 374 kts 90°
2026-04-25 05:42 33.64821 -118.23975 18108 ft 370 kts 80°
2026-04-25 05:43 33.65428 -118.20982 18997 ft 369 kts 71°
2026-04-25 05:43 33.66402 -118.18128 19634 ft 375 kts 60°
2026-04-25 05:43 33.67749 -118.15472 20263 ft 378 kts 50°
2026-04-25 05:43 33.69467 -118.13059 20948 ft 378 kts 40°
2026-04-25 05:44 33.71450 -118.11044 21610 ft 378 kts 30°
2026-04-25 05:44 33.73635 -118.09262 22284 ft 380 kts 29°
2026-04-25 05:44 33.75828 -118.07455 22971 ft 384 kts 30°
2026-04-25 05:44 33.78044 -118.05578 23601 ft 389 kts 30°
2026-04-25 05:45 33.80248 -118.03670 24173 ft 394 kts 31°
2026-04-25 05:45 33.82473 -118.01719 24790 ft 398 kts 31°
2026-04-25 05:45 33.84705 -117.99746 25223 ft 407 kts 31°
2026-04-25 05:45 33.87050 -117.97663 25422 ft 423 kts 31°
2026-04-25 05:46 33.89447 -117.95523 25600 ft 439 kts 31°
2026-04-25 05:46 33.91934 -117.93288 25785 ft 456 kts 32°
2026-04-25 05:46 33.94526 -117.90931 26023 ft 471 kts 32°
2026-04-25 05:46 33.97157 -117.88529 26191 ft 487 kts 32°
2026-04-25 05:47 33.99938 -117.85988 26446 ft 502 kts 32°
2026-04-25 05:47 34.02715 -117.83446 26855 ft 512 kts 32°
2026-04-25 05:47 34.05571 -117.80827 27520 ft 516 kts 32°
2026-04-25 05:47 34.08389 -117.78064 28297 ft 522 kts 39°
2026-04-25 05:48 34.10881 -117.74886 28943 ft 530 kts 46°
2026-04-25 05:48 34.13258 -117.71408 29526 ft 536 kts 47°
2026-04-25 05:48 34.15623 -117.67889 30244 ft 537 kts 47°
2026-04-25 05:48 34.17950 -117.64420 31028 ft 536 kts 47°
2026-04-25 05:49 34.20303 -117.60915 31656 ft 538 kts 47°
2026-04-25 05:49 34.22648 -117.57421 32174 ft 541 kts 47°
2026-04-25 05:49 34.25022 -117.53882 32651 ft 544 kts 47°
2026-04-25 05:49 34.27414 -117.50314 33119 ft 547 kts 47°
2026-04-25 05:50 34.29818 -117.46724 33621 ft 549 kts 47°
2026-04-25 05:50 34.32225 -117.43127 34140 ft 549 kts 46°
2026-04-25 05:50 34.34600 -117.39574 34587 ft 550 kts 46°
2026-04-25 05:50 34.36983 -117.36005 35057 ft 550 kts 46°
2026-04-25 05:51 34.39398 -117.32386 35480 ft 550 kts 46°
2026-04-25 05:51 34.41832 -117.28738 35767 ft 553 kts 47°
2026-04-25 05:51 34.44243 -117.25119 36122 ft 555 kts 47°
2026-04-25 05:51 34.46685 -117.21448 36569 ft 555 kts 46°
2026-04-25 05:52 34.49090 -117.17829 36918 ft 557 kts 46°
2026-04-25 05:52 34.53949 -117.10508 36922 ft 555 kts 46°
2026-04-25 05:53 34.58874 -117.03279 36902 ft 553 kts 45°
2026-04-25 05:53 34.63775 -116.96158 36906 ft 553 kts 45°
2026-04-25 05:54 34.68714 -116.88958 36911 ft 553 kts 44°
2026-04-25 05:54 34.76082 -116.78178 36923 ft 553 kts 45°
2026-04-25 05:55 34.81023 -116.70927 36910 ft 552 kts 45°
2026-04-25 05:55 34.85899 -116.63757 36912 ft 552 kts 44°
2026-04-25 05:56 34.91014 -116.56862 36884 ft 549 kts 40°
2026-04-25 05:56 34.96175 -116.50017 36874 ft 546 kts 40°
2026-04-25 05:57 35.01325 -116.43153 36854 ft 549 kts 41°
2026-04-25 05:57 35.06444 -116.36298 36853 ft 548 kts 41°
2026-04-25 05:58 35.11634 -116.29327 36828 ft 548 kts 41°
2026-04-25 05:58 35.16726 -116.22465 36834 ft 544 kts 41°
2026-04-25 05:59 35.21829 -116.15582 36831 ft 550 kts 41°
2026-04-25 05:59 35.26912 -116.08697 36826 ft 542 kts 41°
2026-04-25 06:00 35.31968 -116.01842 36827 ft 546 kts 41°
2026-04-25 06:00 35.37039 -115.94952 36837 ft 544 kts 41°
2026-04-25 06:01 35.42112 -115.88045 36856 ft 545 kts 41°
2026-04-25 06:01 35.47151 -115.81168 36864 ft 544 kts 42°